Location: Antoign�
(47.0844°N, 0.1131°W)
Time: 08:25:54
(UTC+00:00)

FALCON 9 DEB - Pass Details

Date: 03 March 2021
Orbit: 371 x 390 km, 53.0° (Epoch: 11 April)

Event Time Altitude Azimuth Distance (km) Brightness Sun altitude
Rises 18:26:16 0° 280° (W) 2,295 8.8 -7.1°
Reaches altitude 10° 18:28:31 10° 292° (WNW) 1,440 7.0 -7.5°
Maximum altitude 18:31:22 28° 354° (N) 783 4.5 -8.0°
Drops below altitude 10° 18:34:12 10° 56° (NE) 1,440 5.3 -8.5°
Enters shadow 18:34:27 - 58° (ENE) 1,529 5.4 -8.5°
